Tracking 35331 objects as of 16-Sep-2026
HD Live streaming from Space Station
objects crossing your sky now

STARLINK-30596

Track STARLINK-30596 now!
10-day predictions
STARLINK-30596 is classified as:


NORAD ID: 58110
Int'l Code: 2023-161P
Launch date: October 21, 2023
Source: United States (US)
Launch site: AIR FORCE WESTERN TEST RANGE (AFWTR)
Your satellite tracking list
Your tracking list is empty




NASA's NSSDC Master Catalog

Two Line Element Set (TLE):
1 58110U 23161P   26258.02145787 -.00000286  00000-0  26882-5 0  9993
2 58110  53.1626   3.6596 0001499  95.9741 264.1433 15.34387005163444
Source of the keplerian elements: AFSPC